EW2470 Weather Reports


time (UTC)temp
C
wind
direction
speed
KPH
gust
KPH
rain 1hr
cm
rain 24hr
cm
rain mn
cm
humidity
%
barometer
mb
20260504235017 23 180 1.6 6.4 0.00 0.00 0.00 37 1013.1
20260504234020 23 180 3.2 8.0 0.00 0.00 0.00 37 1013.0
20260504233017 23 180 3.2 9.7 0.00 0.00 0.00 35 1013.1
20260504232018 23 180 4.8 14.5 0.00 0.00 0.00 34 1013.2
20260504231017 24 180 3.2 9.7 0.00 0.00 0.00 34 1013.1
20260504230017 24 180 4.8 11.3 0.00 0.00 0.00 33 1013.1
20260504225057 25 180 6.4 14.5 0.00 0.00 0.00 33 1013.0
20260504224017 25 180 4.8 9.7 0.00 0.00 0.00 34 1013.0
20260504223016 25 180 1.6 8.0 0.00 0.00 0.00 31 1012.9
20260504222017 26 180 3.2 8.0 0.00 0.00 0.00 33 1013.1
20260504221016 26 180 3.2 8.0 0.00 0.00 0.00 31 1013.0
20260504220016 26 113 4.8 11.3 0.00 0.00 0.00 32 1013.1
20260504215036 26 180 4.8 14.5 0.00 0.00 0.00 31 1013.0
20260504214037 26 45 3.2 6.4 0.00 0.00 0.00 31 1013.0
20260504213016 26 113 4.8 12.9 0.00 0.00 0.00 29 1013.0
20260504212016 26 180 4.8 14.5 0.00 0.00 0.00 31 1013.1
20260504211017 27 180 3.2 8.0 0.00 0.00 0.00 32 1013.1
20260504210016 26 225 3.2 6.4 0.00 0.00 0.00 34 1013.2
20260504205016 26 135 3.2 8.0 0.00 0.00 0.00 34 1013.2
20260504204016 26 68 4.8 12.9 0.00 0.00 0.00 32 1013.2
20260504203036 26 158 4.8 11.3 0.00 0.00 0.00 34 1013.4
20260504202017 26 113 4.8 12.9 0.00 0.00 0.00 31 1013.5
20260504201016 26 113 3.2 11.3 0.00 0.00 0.00 31 1013.6
20260504200036 26 248 4.8 16.1 0.00 0.00 0.00 30 1013.7
20260504195016 26 135 3.2 9.7 0.00 0.00 0.00 31 1013.9
20260504194036 27 158 3.2 11.3 0.00 0.00 0.00 35 1014.1
20260504193017 27 248 3.2 9.7 0.00 0.00 0.00 33 1014.2
20260504192017 26 135 4.8 11.3 0.00 0.00 0.00 32 1014.3
20260504191056 26 135 3.2 6.4 0.00 0.00 0.00 34 1014.5
20260504190017 26 225 1.6 4.8 0.00 0.00 0.00 34 1014.6
20260504185016 26 45 1.6 3.2 0.00 0.00 0.00 37 1014.8
20260504184018 25 293 1.6 6.4 0.00 0.00 0.00 37 1015.0
20260504183016 25 45 3.2 6.4 0.00 0.00 0.00 33 1015.1
20260504182017 25 90 3.2 4.8 0.00 0.00 0.00 31 1015.1
20260504181016 26 90 3.2 8.0 0.00 0.00 0.00 33 1015.3
20260504180016 26 225 1.6 6.4 0.00 0.00 0.00 35 1015.2
20260504175016 26 225 1.6 6.4 0.00 0.00 0.00 34 1015.3
20260504174017 25 135 1.6 4.8 0.00 0.00 0.00 35 1015.5
20260504173016 24 135 3.2 9.7 0.00 0.00 0.00 39 1015.6
20260504172016 25 135 1.6 4.8 0.00 0.00 0.00 33 1015.7
20260504171017 25 158 3.2 6.4 0.00 0.00 0.00 38 1015.8
20260504170116 24 45 3.2 4.8 0.00 0.00 0.00 39 1015.8
20260504151017 22 68 1.6 4.8 0.00 0.00 0.00 41 1017.0
20260504141017 20 158 4.8 6.4 0.00 0.00 0.00 48 1017.4
20260504081017 7 0.0 3.2 0.00 0.00 0.00 89 1016.5
20260504050020 8 0.0 0.0 0.00 0.00 0.00 86 1017.1
20260504045017 8 0.0 0.0 0.00 0.00 0.00 86 1017.2
20260504044017 8 0.0 0.0 0.00 0.00 0.00 86 1017.2
20260504043017 9 0.0 0.0 0.00 0.00 0.00 85 1017.1
20260504042018 9 0.0 0.0 0.00 0.00 0.00 85 1017.1
20260504041057 9 0.0 0.0 0.00 0.00 0.00 84 1017.1
20260504040017 9 0.0 0.0 0.00 0.00 0.00 84 1017.0
20260504035017 10 0.0 0.0 0.00 0.00 0.00 83 1016.9
20260504034017 10 0.0 0.0 0.00 0.00 0.00 83 1017.0
20260504033017 10 0.0 0.0 0.00 0.00 0.00 83 1017.0
20260504032017 10 0.0 0.0 0.00 0.00 0.00 82 1017.0
20260504031017 10 0.0 0.0 0.00 0.00 0.00 81 1016.9
20260504030017 10 0.0 0.0 0.00 0.00 0.00 81 1016.9
20260504025037 11 0.0 0.0 0.00 0.00 0.00 80 1016.9
20260504024059 11 0.0 0.0 0.00 0.00 0.00 79 1016.8
20260504023017 11 0.0 0.0 0.00 0.00 0.00 79 1016.7
20260504022019 12 0.0 0.0 0.00 0.00 0.00 78 1016.6
20260504021016 12 0.0 1.6 0.00 0.00 0.00 76 1016.4
20260504020017 12 0.0 0.0 0.00 0.00 0.00 75 1016.3
20260504015019 13 0.0 0.0 0.00 0.00 0.00 73 1016.2
20260504014017 13 0.0 0.0 0.00 0.00 0.00 71 1016.0
20260504013017 13 0.0 0.0 0.00 0.00 0.00 71 1016.0
20260504012018 14 0.0 0.0 0.00 0.00 0.00 67 1015.8
20260504011017 15 0.0 0.0 0.00 0.00 0.00 66 1015.8
20260504010016 15 0.0 0.0 0.00 0.00 0.00 63 1015.7
20260504005017 16 0.0 0.0 0.00 0.00 0.00 61 1015.6
20260504004016 17 0.0 0.0 0.00 0.00 0.00 58 1015.5
20260504003016 17 0.0 0.0 0.00 0.00 0.00 56 1015.3
20260504002017 18 0.0 0.0 0.00 0.00 0.00 53 1015.2
20260504001016 18 0.0 3.2 0.00 0.00 0.00 49 1015.2
20260504000016 19 0.0 1.6 0.00 0.00 0.00 47 1015.1